Broken Bow, NE

2:01 AM CST on December 13, 2019 (GMT -0600)
Broken Bow Municipal

Weather History for KBBW - November, 2019

Change the Weather History Date:

Thursday, November 14, 2019

  Actual Average Record
Temperature  
Mean Temperature 38 °F 37 °F  
Max Temperature 55 °F 50 °F 79 °F (1999)
Min Temperature 21 °F 24 °F -12 °F (1940)
Degree Days  
Heating Degree Days 27 28  
Month to date heating degree days 426 350  
Cooling Degree Days 0 0  
Month to date cooling degree days 0 0  
Year to date cooling degree days 839 768  
Moisture  
Dew Point 27 °F    
Average Humidity 65    
Maximum Humidity 92    
Minimum Humidity 38    
Precipitation  
Precipitation T in 0.03 in 0.22 in (2006)
Sea Level Pressure  
Sea Level Pressure 30.30 in    
Wind  
Wind Speed 4 mph (WNW)    
Max Wind Speed 15 mph    
Max Gust Speed 19 mph    
Visibility 10 miles    
Events      
T = Trace of Precipitation, MM = Missing Value Source: NWS Daily Summary

Daily Weather History Graph

Daily Weather History Graph

Search for Another Location

Airport or City:

Astronomy

Nov. 14, 2019 Rise Set
Actual Time 7:25 AM CST 5:19 PM CST
Civil Twilight 6:56 AM CST 5:49 PM CST
Nautical Twilight 6:22 AM CST 6:22 PM CST
Astronomical Twilight 5:49 AM CST 6:55 PM CST
Moon 7:05 PM CST (11/14) 9:23 AM CST (11/14)
Length of Visible Light 10h 53m
Length of Day
9h 54m
Waning Gibbous, 95% of the Moon is Illuminated
Nov 14
Waning Gibbous
Nov 19
Last Quarter
Nov 26
New
Dec 4
First Quarter
Dec 11
Full

Hourly Weather History & Observations

Time (CST) Temp. Windchill Dew Point Humidity Pressure Visibility Wind Dir Wind Speed Gust Speed Precip Events Conditions
12:53 AM 36.0 °F 30.3 °F 33.1 °F 89% 30.23 in 10.0 mi NNW 6.9 mph - N/A   Overcast
1:53 AM 34.0 °F 28.0 °F 30.0 °F 85% 30.26 in 10.0 mi NNW 6.9 mph - N/A   Mostly Cloudy
2:05 AM 32.0 °F 24.8 °F 28.0 °F 85% 30.22 in 10.0 mi NW 8.1 mph - N/A   Scattered Clouds
2:53 AM 25.0 °F 19.3 °F 23.0 °F 92% 30.29 in 10.0 mi NNW 4.6 mph - N/A   Clear
3:53 AM 28.9 °F 21.9 °F 27.0 °F 92% 30.30 in 10.0 mi WNW 6.9 mph - N/A   Clear
4:53 AM 28.0 °F 22.8 °F 26.1 °F 92% 30.32 in 10.0 mi WNW 4.6 mph - N/A   Clear
6:53 AM 21.9 °F - 19.9 °F 92% 30.35 in 10.0 mi Calm Calm - N/A   Clear
7:53 AM 28.9 °F 21.9 °F 26.1 °F 89% 30.35 in 10.0 mi NW 6.9 mph - N/A   Clear
8:53 AM 32.0 °F - 28.0 °F 85% 30.37 in 10.0 mi Calm Calm - N/A   Clear
9:53 AM - - - N/A% 30.31 in - West 6.9 mph - 0.00 in   Clear
10:53 AM 45.0 °F 39.7 °F 28.9 °F 53% 30.36 in - WNW 10.4 mph - N/A   Clear
11:53 AM 48.9 °F - 28.9 °F 46% 30.35 in 10.0 mi West 9.2 mph - N/A   Clear
12:53 PM 53.1 °F - 30.0 °F 41% 30.30 in 10.0 mi WNW 9.2 mph - N/A   Clear
1:53 PM 54.0 °F - 30.9 °F 41% 30.28 in 10.0 mi Variable 6.9 mph - N/A   Clear
2:53 PM 55.0 °F - 30.9 °F 40% 30.27 in 10.0 mi SW 11.5 mph 18.4 mph N/A   Clear
3:53 PM 55.0 °F - 30.9 °F 40% 30.27 in 10.0 mi WSW 9.2 mph - N/A   Clear
4:53 PM 53.1 °F - 30.9 °F 43% 30.27 in 10.0 mi Calm Calm - N/A   Clear
5:53 PM 36.0 °F - 27.0 °F 70% 30.32 in 10.0 mi Calm Calm - N/A   Clear
6:53 PM 32.0 °F - 24.1 °F 73% 30.33 in 10.0 mi Calm Calm - N/A   Clear
7:53 PM 28.0 °F - 21.9 °F 78% 30.33 in 10.0 mi Calm Calm - N/A   Clear
8:53 PM 27.0 °F - 21.9 °F 81% 30.33 in 10.0 mi Calm Calm - N/A   Clear
9:53 PM 27.0 °F - 21.0 °F 78% 30.25 in 10.0 mi Calm Calm - N/A   Clear
10:53 PM 26.1 °F - 21.9 °F 84% 30.30 in 10.0 mi Calm Calm - N/A   Clear
11:53 PM 28.0 °F - 21.9 °F 78% 30.30 in 10.0 mi Calm Calm - N/A   Clear